| time (UTC) | temp F | wind direction | speed MPH | gust MPH | rain 1hr in | rain 24hr in | rain mn in | humidity % | barometer mb |
| 20260507130108 | 56 | 0 | 0.0 | 0.0 | 0.00 | 0.00 | 0.00 | 91 | 1016.1 |
| 20260507124602 | 56 | 0 | 0.0 | 0.0 | 0.00 | 0.00 | 0.00 | 91 | 1015.9 |
| 20260507123106 | 56 | 0 | 0.0 | 0.0 | 0.00 | 0.00 | 0.00 | 91 | 1015.8 |
| 20260507121613 | 56 | 0 | 0.0 | 0.0 | 0.00 | 0.00 | 0.00 | 91 | 1015.8 |
| 20260507120059 | 56 | 0 | 0.0 | 0.0 | 0.00 | 0.00 | 0.00 | 91 | 1015.7 |
| 20260507114602 | 56 | 0 | 0.0 | 0.0 | 0.00 | 0.00 | 0.00 | 91 | 1015.8 |
| 20260507113128 | 55 | 0 | 0.0 | 0.0 | 0.00 | 0.00 | 0.00 | 91 | 1015.7 |
| 20260507111553 | 55 | 0 | 0.0 | 0.0 | 0.00 | 0.00 | 0.00 | 91 | 1015.8 |
| 20260507110058 | 55 | 0 | 0.0 | 0.0 | 0.00 | 0.00 | 0.00 | 91 | 1015.9 |
| 20260507104602 | 55 | 0 | 0.0 | 0.0 | 0.00 | 0.00 | 0.00 | 91 | 1016.0 |
| 20260507103054 | 54 | 0 | 0.0 | 0.0 | 0.00 | 0.00 | 0.00 | 90 | 1016.0 |
| 20260507101557 | 54 | 0 | 0.0 | 0.0 | 0.00 | 0.00 | 0.00 | 90 | 1016.2 |
| 20260507100101 | 54 | 0 | 0.0 | 0.0 | 0.00 | 0.00 | 0.00 | 90 | 1016.2 |
| 20260507094606 | 55 | 0 | 0.0 | 0.0 | 0.00 | 0.00 | 0.00 | 90 | 1016.5 |
| 20260507093057 | 55 | 0 | 0.0 | 0.0 | 0.00 | 0.00 | 0.00 | 90 | 1016.4 |
| 20260507091556 | 55 | 0 | 0.0 | 0.0 | 0.00 | 0.00 | 0.00 | 90 | 1016.6 |
| 20260507090053 | 55 | 0 | 0.0 | 0.0 | 0.00 | 0.00 | 0.00 | 90 | 1016.8 |
| 20260507084600 | 55 | 0 | 0.0 | 0.0 | 0.00 | 0.00 | 0.00 | 90 | 1016.8 |
| 20260507083054 | 56 | 0 | 0.0 | 0.0 | 0.00 | 0.00 | 0.00 | 89 | 1017.0 |
| 20260507081555 | 56 | 0 | 0.0 | 0.0 | 0.00 | 0.00 | 0.00 | 89 | 1017.1 |
| 20260507080053 | 56 | 0 | 0.0 | 0.0 | 0.00 | 0.00 | 0.00 | 89 | 1017.2 |
| 20260507074554 | 56 | 0 | 0.0 | 0.0 | 0.00 | 0.00 | 0.00 | 89 | 1017.4 |
| 20260507073057 | 57 | 0 | 0.0 | 0.0 | 0.00 | 0.00 | 0.00 | 89 | 1017.4 |
| 20260507071554 | 57 | 0 | 0.0 | 0.0 | 0.00 | 0.00 | 0.00 | 88 | 1017.5 |
| 20260507070108 | 57 | 0 | 0.0 | 0.0 | 0.00 | 0.00 | 0.00 | 88 | 1017.4 |
| 20260507064559 | 57 | 0 | 0.0 | 0.0 | 0.00 | 0.00 | 0.00 | 88 | 1017.6 |
| 20260507063056 | 58 | 0 | 0.0 | 0.0 | 0.00 | 0.00 | 0.00 | 87 | 1017.6 |
| 20260507061555 | 58 | 0 | 0.0 | 0.0 | 0.00 | 0.00 | 0.00 | 87 | 1017.6 |
| 20260507060100 | 58 | 0 | 0.0 | 0.0 | 0.00 | 0.00 | 0.00 | 87 | 1017.7 |
| 20260507054552 | 59 | 0 | 0.0 | 0.0 | 0.00 | 0.00 | 0.00 | 86 | 1017.6 |
| 20260507053057 | 59 | 0 | 0.0 | 0.0 | 0.00 | 0.00 | 0.00 | 86 | 1017.6 |
| 20260507051606 | 59 | 0 | 0.0 | 0.0 | 0.00 | 0.00 | 0.00 | 85 | 1017.5 |
| 20260507050108 | 60 | 0 | 0.0 | 0.0 | 0.00 | 0.00 | 0.00 | 85 | 1017.6 |
| 20260507044600 | 60 | 0 | 0.0 | 0.0 | 0.00 | 0.00 | 0.00 | 84 | 1017.4 |
| 20260507043057 | 60 | 0 | 0.0 | 0.0 | 0.00 | 0.00 | 0.00 | 83 | 1017.3 |
| 20260507041552 | 60 | 0 | 0.0 | 0.0 | 0.00 | 0.00 | 0.00 | 82 | 1017.3 |
| 20260507040106 | 60 | 0 | 0.0 | 1.0 | 0.00 | 0.00 | 0.00 | 82 | 1017.3 |
| 20260507034605 | 61 | 0 | 0.0 | 2.0 | 0.00 | 0.00 | 0.00 | 80 | 1017.2 |
| 20260507033100 | 62 | 0 | 0.0 | 2.0 | 0.00 | 0.00 | 0.00 | 78 | 1017.0 |
| 20260507031555 | 62 | 0 | 0.0 | 4.0 | 0.00 | 0.00 | 0.00 | 75 | 1016.9 |
| 20260507030056 | 63 | 0 | 0.0 | 3.0 | 0.00 | 0.00 | 0.00 | 72 | 1016.8 |
| 20260507024558 | 63 | 0 | 0.0 | 3.0 | 0.00 | 0.00 | 0.00 | 71 | 1016.7 |
| 20260507023054 | 64 | 0 | 0.0 | 4.0 | 0.00 | 0.00 | 0.00 | 70 | 1016.6 |
| 20260507021602 | 65 | 304 | 0.0 | 2.0 | 0.00 | 0.00 | 0.00 | 68 | 1016.5 |
| 20260507020057 | 65 | 296 | 1.0 | 4.0 | 0.00 | 0.00 | 0.00 | 68 | 1016.4 |
| 20260507014556 | 66 | 0 | 0.0 | 6.0 | 0.00 | 0.00 | 0.00 | 67 | 1016.4 |
| 20260507013056 | 67 | 320 | 0.0 | 4.0 | 0.00 | 0.00 | 0.00 | 66 | 1016.4 |
| 20260507011557 | 68 | 0 | 0.0 | 7.0 | 0.00 | 0.00 | 0.00 | 65 | 1016.3 |
| 20260507010057 | 68 | 0 | 1.0 | 6.0 | 0.00 | 0.00 | 0.00 | 65 | 1016.2 |
| 20260507004553 | 69 | 0 | 1.0 | 8.0 | 0.00 | 0.00 | 0.00 | 64 | 1016.2 |
| 20260507003054 | 69 | 0 | 2.0 | 9.0 | 0.00 | 0.00 | 0.00 | 63 | 1016.2 |
| 20260507001606 | 70 | 303 | 0.0 | 9.0 | 0.00 | 0.00 | 0.00 | 61 | 1016.0 |
| 20260507000057 | 69 | 277 | 1.0 | 12.0 | 0.00 | 0.00 | 0.00 | 61 | 1015.9 |
| 20260506234624 | 69 | 0 | 2.0 | 9.0 | 0.00 | 0.00 | 0.00 | 60 | 1015.8 |
| 20260506233100 | 69 | 263 | 2.0 | 10.0 | 0.00 | 0.00 | 0.00 | 60 | 1015.8 |
| 20260506231557 | 69 | 288 | 2.0 | 10.0 | 0.00 | 0.00 | 0.00 | 61 | 1015.8 |
| 20260506230100 | 69 | 290 | 0.0 | 9.0 | 0.00 | 0.00 | 0.00 | 64 | 1015.8 |
| 20260506224556 | 70 | 352 | 2.0 | 11.0 | 0.00 | 0.00 | 0.00 | 63 | 1015.9 |
| 20260506223100 | 70 | 315 | 3.0 | 11.0 | 0.00 | 0.00 | 0.00 | 63 | 1016.0 |
| 20260506221557 | 69 | 306 | 1.0 | 10.0 | 0.00 | 0.00 | 0.00 | 63 | 1016.1 |
| 20260506220058 | 69 | 288 | 2.0 | 9.0 | 0.00 | 0.00 | 0.00 | 64 | 1016.3 |
| 20260506214557 | 69 | 286 | 3.0 | 13.0 | 0.00 | 0.00 | 0.00 | 63 | 1016.3 |
| 20260506213054 | 70 | 305 | 3.0 | 10.0 | 0.00 | 0.00 | 0.00 | 63 | 1016.4 |
| 20260506211553 | 70 | 281 | 2.0 | 10.0 | 0.00 | 0.00 | 0.00 | 61 | 1016.5 |
| 20260506210058 | 69 | 304 | 3.0 | 13.0 | 0.00 | 0.00 | 0.00 | 62 | 1016.7 |
| 20260506204559 | 70 | 309 | 3.0 | 10.0 | 0.00 | 0.00 | 0.00 | 62 | 1016.7 |
| 20260506203056 | 70 | 279 | 1.0 | 9.0 | 0.00 | 0.00 | 0.00 | 62 | 1016.7 |
| 20260506201557 | 69 | 315 | 1.0 | 10.0 | 0.00 | 0.00 | 0.00 | 63 | 1017.0 |
| 20260506200109 | 70 | 296 | 2.0 | 11.0 | 0.00 | 0.00 | 0.00 | 61 | 1017.0 |
| 20260506194616 | 71 | 281 | 2.0 | 12.0 | 0.00 | 0.00 | 0.00 | 59 | 1017.2 |
| 20260506193058 | 71 | 306 | 1.0 | 7.0 | 0.00 | 0.00 | 0.00 | 59 | 1017.2 |
| 20260506191555 | 71 | 302 | 1.0 | 8.0 | 0.00 | 0.00 | 0.00 | 58 | 1017.3 |
| 20260506190055 | 71 | 290 | 1.0 | 9.0 | 0.00 | 0.00 | 0.00 | 59 | 1017.4 |
| 20260506184605 | 71 | 300 | 0.0 | 8.0 | 0.00 | 0.00 | 0.00 | 60 | 1017.6 |
| 20260506183107 | 70 | 288 | 1.0 | 5.0 | 0.00 | 0.00 | 0.00 | 59 | 1017.7 |
| 20260506181559 | 69 | 214 | 1.0 | 8.0 | 0.00 | 0.00 | 0.00 | 61 | 1017.6 |
| 20260506180057 | 69 | 0 | 1.0 | 3.0 | 0.00 | 0.00 | 0.00 | 60 | 1017.8 |
| 20260506174601 | 68 | 344 | 0.0 | 6.0 | 0.00 | 0.00 | 0.00 | 61 | 1018.0 |
| 20260506173111 | 67 | 0 | 0.0 | 8.0 | 0.00 | 0.00 | 0.00 | 63 | 1018.1 |
| 20260506171602 | 66 | 263 | 0.0 | 4.0 | 0.00 | 0.00 | 0.00 | 64 | 1018.2 |
| 20260506170058 | 65 | 296 | 1.0 | 5.0 | 0.00 | 0.00 | 0.00 | 66 | 1018.2 |
| 20260506164558 | 65 | 178 | 0.0 | 4.0 | 0.00 | 0.00 | 0.00 | 68 | 1018.2 |
| 20260506163057 | 63 | 0 | 0.0 | 5.0 | 0.00 | 0.00 | 0.00 | 71 | 1018.3 |
| 20260506161604 | 61 | 167 | 0.0 | 5.0 | 0.00 | 0.00 | 0.00 | 74 | 1018.2 |
| 20260506160056 | 60 | 0 | 0.0 | 2.0 | 0.00 | 0.00 | 0.00 | 77 | 1018.3 |
| 20260506154558 | 59 | 0 | 0.0 | 2.0 | 0.00 | 0.02 | 0.00 | 80 | 1018.2 |
| 20260506153058 | 58 | 98 | 0.0 | 2.0 | 0.00 | 0.02 | 0.00 | 82 | 1018.3 |
| 20260506151607 | 56 | 0 | 0.0 | 2.0 | 0.00 | 0.02 | 0.00 | 84 | 1018.2 |
| 20260506150057 | 55 | 0 | 0.0 | 4.0 | 0.00 | 0.02 | 0.00 | 86 | 1018.3 |
| 20260506144606 | 54 | 0 | 0.0 | 2.0 | 0.00 | 0.03 | 0.00 | 87 | 1018.3 |
| 20260506143057 | 53 | 0 | 0.0 | 3.0 | 0.00 | 0.03 | 0.00 | 88 | 1018.3 |
| 20260506141554 | 52 | 0 | 0.0 | 2.0 | 0.00 | 0.03 | 0.00 | 88 | 1018.1 |
| 20260506140105 | 52 | 0 | 0.0 | 1.0 | 0.00 | 0.03 | 0.00 | 89 | 1018.1 |
| 20260506134556 | 51 | 0 | 0.0 | 1.0 | 0.00 | 0.10 | 0.00 | 89 | 1018.0 |
| 20260506133054 | 51 | 0 | 0.0 | 1.0 | 0.00 | 0.10 | 0.00 | 89 | 1018.1 |
| 20260506131557 | 51 | 0 | 0.0 | 3.0 | 0.00 | 0.10 | 0.00 | 88 | 1017.8 |